GOSAT 2 (43672 NORAD) Tracking and Keplerian Element Data

This shows tracking and keplerian element data for the satellite.

Feedback or suggestion? Click here.




ElementValue
Catalog43672
NameGOSAT 2
Epoch Orbit450
Epoch Day332.52173088
Epoch Year2018
RAAN82.6014
Inclination97.8281
Eccentricity0.0001365
Argument of Perigee99.1209
Mean Anonmoly261.1471
Mean Motion14.84262497
Decay Rate6.77E-06
L11 43672U 18084B 18332.52173088 .00000677 00000-0 87153-4 0 9992
L22 43672 97.8281 82.6014 0001365 99.1209 261.1471 14.84262497 4503

Live tracking and technical data element details for GOSAT 2 (NORAD 43672). GOSAT 2 can be tracked NOW for your location showing map with azimuth and elevation plus other details from your city location.

Track the satellite on the map from your city or location and see movement details for azimuth, elevation, latitude, longitude, range, height, and movement on the map or in text.







IsCatalogInMostPopularTable: catalog: 43672, numindb: 145
Update: records affected: 1



GetName: 43672 GOSAT 2

Hit Count: updated at: Tue, 16 Jul 2019 21:01:11 GMT